Location: St. Louis
(38.6270°N, 90.1994°W)
Time: 12:11:52
(UTC-06:00)

A-11 Canister half - Pass Details

Date: 07 December 2021
Orbit: 1524 x 1684 km, 47.3° (Epoch: 25 January)

Event Time Altitude Azimuth Distance (km) Brightness Sun altitude
Rises 23:28:46 0° 222° (SW) 4,890 - -73.3°
Reaches altitude 10° 23:31:55 10° 219° (SW) 3,917 - -73.5°
Maximum altitude 23:41:52 66° 140° (SE) 1,812 - -73.9°
Drops below altitude 10° 23:51:52 10° 62° (ENE) 3,938 - -74.1°
Sets 23:55:02 0° 60° (ENE) 4,917 - -74.1°
